KB9ZI Weather Reports


time (UTC)temp
C
wind
direction
speed
KPH
gust
KPH
rain 1hr
cm
rain 24hr
cm
rain mn
cm
humidity
%
barometer
mb
20260509212051 16 106 0.0 11.3 0.00 0.00 0.00 34 1009.8
20260509211955 16 31 0.0 11.3 0.00 0.00 0.00 34 1009.8
20260509211854 16 41 0.0 11.3 0.00 0.00 0.00 36 1009.8
20260509211800 16 42 0.0 11.3 0.00 0.00 0.00 39 1009.8
20260509211742 16 17 0.0 11.3 0.00 0.00 0.00 38 1009.8
20260509211706 16 42 0.0 11.3 0.00 0.00 0.00 39 1009.8
20260509211255 16 279 0.0 11.3 0.00 0.00 0.00 38 1009.9
20260509211054 16 47 0.0 11.3 0.00 0.00 0.00 35 1009.7
20260509210954 16 358 0.0 11.3 0.00 0.00 0.00 36 1009.8
20260509210852 16 209 0.0 11.3 0.00 0.00 0.00 37 1009.8
20260509210653 16 49 0.0 9.7 0.00 0.00 0.00 37 1009.8
20260509210455 16 348 0.0 9.7 0.00 0.00 0.00 37 1009.7
20260509210253 17 234 0.0 9.7 0.00 0.00 0.00 39 1009.7
20260509210053 16 39 0.0 9.7 0.00 0.00 0.00 40 1009.6
20260509205953 16 118 0.0 9.7 0.00 0.00 0.00 38 1009.7
20260509205853 16 59 0.0 9.7 0.00 0.00 0.00 38 1009.7
20260509205756 16 212 0.0 9.7 0.00 0.00 0.00 41 1009.7
20260509205740 16 4 0.0 9.7 0.00 0.00 0.00 37 1009.7
20260509205253 17 34 0.0 9.7 0.00 0.00 0.00 41 1009.7
20260509205053 16 261 0.0 9.7 0.00 0.00 0.00 40 1009.8
20260509204953 16 272 0.0 9.7 0.00 0.00 0.00 37 1009.6
20260509204853 16 49 0.0 9.7 0.00 0.00 0.00 41 1009.6
20260509204802 17 279 0.0 8.0 0.00 0.00 0.00 35 1009.7
20260509204745 16 210 0.0 9.7 0.00 0.00 0.00 37 1009.7
20260509204708 17 279 0.0 8.0 0.00 0.00 0.00 35 1009.7
20260509204254 16 56 0.0 8.0 0.00 0.00 0.00 40 1009.8
20260509204032 16 56 0.0 8.0 0.00 0.00 0.00 40 1009.6
20260509203955 16 56 0.0 8.0 0.00 0.00 0.00 40 1009.6
20260509203924 16 251 0.0 11.3 0.00 0.00 0.00 40 1009.7
20260509203745 16 41 0.0 14.5 0.00 0.00 0.00 40 1009.6
20260509203727 16 240 0.0 14.5 0.00 0.00 0.00 41 1009.6
20260509203425 16 41 0.0 14.5 0.00 0.00 0.00 40 1009.7
20260509203226 16 20 0.0 14.5 0.00 0.00 0.00 40 1009.6
20260509203020 16 10 0.0 14.5 0.00 0.00 0.00 39 1009.6
20260509202952 16 7 0.0 14.5 0.00 0.00 0.00 36 1009.6
20260509202815 16 38 0.0 14.5 0.00 0.00 0.00 39 1009.6
20260509202747 16 336 0.0 11.3 0.00 0.00 0.00 40 1009.6
20260509202725 16 28 0.0 11.3 0.00 0.00 0.00 38 1009.6
20260509202415 16 347 0.0 11.3 0.00 0.00 0.00 40 1009.6
20260509202214 16 0 0.0 9.7 0.00 0.00 0.00 38 1009.5
20260509202014 16 68 0.0 11.3 0.00 0.00 0.00 39 1009.6
20260509201952 16 18 0.0 11.3 0.00 0.00 0.00 39 1009.6
20260509201911 16 100 0.0 11.3 0.00 0.00 0.00 40 1009.6
20260509201750 16 344 0.0 11.3 0.00 0.00 0.00 43 1009.5
20260509201727 16 28 0.0 11.3 0.00 0.00 0.00 42 1009.6
20260509201412 16 235 0.0 11.3 0.00 0.00 0.00 38 1009.6
20260509201213 16 1 0.0 11.3 0.00 0.00 0.00 39 1009.4
20260509201011 16 37 0.0 11.3 0.00 0.00 0.00 38 1009.5
20260509200951 16 131 0.0 11.3 0.00 0.00 0.00 38 1009.5
20260509200813 16 250 0.0 14.5 0.00 0.00 0.00 40 1009.5
20260509200747 16 6 0.0 14.5 0.00 0.00 0.00 40 1009.6
20260509200726 16 42 0.0 14.5 0.00 0.00 0.00 37 1009.5
20260509200411 16 307 0.0 14.5 0.00 0.00 0.00 37 1009.5
20260509200308 16 13 0.0 14.5 0.00 0.00 0.00 36 1009.5
20260509200006 16 0 0.0 14.5 0.00 0.00 0.00 39 1009.5
20260509195951 16 14 0.0 14.5 0.00 0.00 0.00 41 1009.5
20260509195806 16 234 0.0 11.3 0.00 0.00 0.00 39 1009.3
20260509195747 16 248 0.0 11.3 0.00 0.00 0.00 38 1009.4
20260509195725 16 251 0.0 11.3 0.00 0.00 0.00 37 1009.4
20260509195407 16 271 0.0 11.3 0.00 0.00 0.00 38 1009.3
20260509195206 16 199 0.0 16.1 0.00 0.00 0.00 40 1009.4
20260509195005 16 255 0.0 16.1 0.00 0.00 0.00 39 1009.3
20260509194953 16 255 0.0 16.1 0.00 0.00 0.00 39 1009.3
20260509194806 16 340 0.0 16.1 0.00 0.00 0.00 37 1009.4
20260509194606 16 16 0.0 16.1 0.00 0.00 0.00 40 1009.3
20260509194451 16 25 0.0 16.1 0.00 0.00 0.00 41 1009.3
20260509194354 16 155 0.0 16.1 0.00 0.00 0.00 40 1009.3
20260509194254 16 145 0.0 20.9 0.00 0.00 0.00 38 1009.2
20260509193951 16 166 0.0 20.9 0.00 0.00 0.00 38 1009.3
20260509193753 16 96 0.0 20.9 0.00 0.00 0.00 39 1009.4
20260509193745 15 185 0.0 20.9 0.00 0.00 0.00 37 1009.2
20260509193721 16 226 0.0 20.9 0.00 0.00 0.00 37 1009.3
20260509193355 16 262 0.0 20.9 0.00 0.00 0.00 37 1009.2
20260509193152 16 313 0.0 16.1 0.00 0.00 0.00 41 1009.3
20260509192954 16 202 0.0 14.5 0.00 0.00 0.00 42 1009.2
20260509192827 16 254 0.0 14.5 0.00 0.00 0.00 44 1009.1
20260509192759 16 18 0.0 14.5 0.00 0.00 0.00 44 1009.1
20260509192753 16 166 0.0 9.7 0.00 0.00 0.00 41 1009.1
20260509192353 16 41 0.0 14.5 0.00 0.00 0.00 42 1009.1
20260509192153 16 58 0.0 14.5 0.00 0.00 0.00 43 1009.2
20260509191954 16 30 0.0 14.5 0.00 0.00 0.00 41 1009.2
20260509191755 16 158 0.0 14.5 0.00 0.00 0.00 41 1009.2
20260509191747 16 282 0.0 14.5 0.00 0.00 0.00 42 1009.3
20260509191724 16 221 0.0 14.5 0.00 0.00 0.00 38 1009.2
20260509191355 16 17 0.0 14.5 0.00 0.00 0.00 40 1009.2
20260509191154 16 17 0.0 14.5 0.00 0.00 0.00 40 1009.1
20260509191056 16 344 0.0 14.5 0.00 0.00 0.00 38 1009.2
20260509190956 16 344 0.0 14.5 0.00 0.00 0.00 38 1009.2
20260509190753 16 32 0.0 11.3 0.00 0.00 0.00 44 1009.2
20260509190554 16 282 0.0 11.3 0.00 0.00 0.00 40 1009.2
20260509190435 16 165 0.0 11.3 0.00 0.00 0.00 39 1009.1
20260509190353 16 199 0.0 11.3 0.00 0.00 0.00 39 1009.1
20260509190254 16 238 0.0 11.3 0.00 0.00 0.00 38 1009.2
20260509185953 16 157 0.0 11.3 0.00 0.00 0.00 40 1009.0
20260509185934 16 351 0.0 11.3 0.00 0.00 0.00 40 1009.0
20260509185752 16 25 0.0 11.3 0.00 0.00 0.00 42 1009.1
20260509185732 16 73 0.0 11.3 0.00 0.00 0.00 39 1008.9
20260509185711 16 34 0.0 11.3 0.00 0.00 0.00 41 1009.0
20260509185355 16 73 0.0 11.3 0.00 0.00 0.00 39 1008.9
20260509185153 16 123 0.0 11.3 0.00 0.00 0.00 39 1009.0
20260509184954 16 38 0.0 11.3 0.00 0.00 0.00 40 1009.1
20260509184933 16 317 0.0 11.3 0.00 0.00 0.00 40 1009.0
20260509184806 16 199 0.0 9.7 0.00 0.00 0.00 38 1009.0
20260509184753 16 289 0.0 11.3 0.00 0.00 0.00 41 1008.9
20260509184725 16 243 0.0 11.3 0.00 0.00 0.00 43 1008.9
20260509184353 16 243 0.0 11.3 0.00 0.00 0.00 41 1008.9
20260509184154 16 292 0.0 11.3 0.00 0.00 0.00 38 1008.9
20260509183953 16 11 0.0 11.3 0.00 0.00 0.00 43 1008.7
20260509183931 16 10 0.0 11.3 0.00 0.00 0.00 43 1008.7
20260509183754 16 300 0.0 11.3 0.00 0.00 0.00 46 1008.8
20260509183731 15 109 0.0 11.3 0.00 0.00 0.00 44 1008.7
20260509183711 15 63 0.0 11.3 0.00 0.00 0.00 42 1008.7
20260509183354 15 4 0.0 11.3 0.00 0.00 0.00 44 1008.7
20260509183153 16 190 0.0 11.3 0.00 0.00 0.00 39 1008.9
20260509183052 16 214 0.0 9.7 0.00 0.00 0.00 43 1008.7
20260509182931 16 257 0.0 9.7 0.00 0.00 0.00 44 1008.7
20260509182753 16 248 0.0 6.4 0.00 0.00 0.00 42 1008.7
20260509182552 16 138 0.0 6.4 0.00 0.00 0.00 45 1008.8
20260509182431 16 196 0.0 16.1 0.00 0.00 0.00 43 1008.7
20260509182353 16 199 0.0 16.1 0.00 0.00 0.00 43 1008.7
20260509182152 16 240 0.0 16.1 0.00 0.00 0.00 43 1008.7
20260509182054 16 32 0.0 16.1 0.00 0.00 0.00 45 1008.7
20260509181931 16 30 0.0 16.1 0.00 0.00 0.00 45 1008.7
20260509181754 15 4 0.0 16.1 0.00 0.00 0.00 43 1008.7
20260509181554 15 4 0.0 16.1 0.00 0.00 0.00 43 1008.7
20260509181432 15 16 0.0 14.5 0.00 0.00 0.00 43 1008.7
20260509181353 15 37 0.0 14.5 0.00 0.00 0.00 42 1008.7
20260509181154 15 0 0.0 14.5 0.00 0.00 0.00 43 1008.7
20260509180958 16 244 0.0 14.5 0.00 0.00 0.00 42 1008.7
20260509180931 16 244 0.0 14.5 0.00 0.00 0.00 42 1008.5
20260509180753 16 214 0.0 14.5 0.00 0.00 0.00 42 1008.6
20260509180552 16 0 0.0 8.0 0.00 0.00 0.00 45 1008.5
20260509180453 16 276 0.0 11.3 0.00 0.00 0.00 44 1008.5
20260509180411 16 276 0.0 11.3 0.00 0.00 0.00 47 1008.5
20260509180151 16 0 0.0 11.3 0.00 0.00 0.00 46 1008.6
20260509175951 15 344 0.0 11.3 0.00 0.00 0.00 46 1008.4
20260509175913 15 44 0.0 11.3 0.00 0.00 0.00 46 1008.6
20260509175753 15 245 0.0 11.3 0.00 0.00 0.00 43 1008.5
20260509175551 15 348 0.0 11.3 0.00 0.00 0.00 44 1008.6
20260509175411 15 0 0.0 14.5 0.00 0.00 0.00 48 1008.4
20260509175352 15 30 0.0 14.5 0.00 0.00 0.00 48 1008.4
20260509175148 15 182 0.0 14.5 0.00 0.00 0.00 45 1008.5
20260509174949 15 259 0.0 14.5 0.00 0.00 0.00 44 1008.5
20260509174913 15 195 0.0 14.5 0.00 0.00 0.00 47 1008.5
20260509174850 15 302 0.0 14.5 0.00 0.00 0.00 44 1008.5
20260509174548 15 237 0.0 14.5 0.00 0.00 0.00 41 1008.5
20260509174406 15 219 0.0 14.5 0.00 0.00 0.00 43 1008.4
20260509174344 15 305 0.0 14.5 0.00 0.00 0.00 43 1008.4
20260509174210 15 1 0.0 16.1 0.00 0.00 0.00 43 1008.4
20260509174159 15 0 0.0 14.5 0.00 0.00 0.00 46 1008.3
20260509174131 15 355 0.0 14.5 0.00 0.00 0.00 43 1008.4
20260509173843 15 111 0.0 16.1 0.00 0.00 0.00 45 1008.3
20260509173543 15 16 0.0 16.1 0.00 0.00 0.00 45 1008.3
20260509173407 15 0 0.0 16.1 0.00 0.00 0.00 47 1008.4
20260509173344 15 1 0.0 16.1 0.00 0.00 0.00 45 1008.3
20260509173138 15 58 0.0 16.1 0.00 0.00 0.00 46 1008.3
20260509172936 15 172 0.0 16.1 0.00 0.00 0.00 45 1008.4
20260509172908 15 76 0.0 14.5 0.00 0.00 0.00 45 1008.4
20260509172736 15 137 0.0 14.5 0.00 0.00 0.00 44 1008.2
20260509172536 15 347 0.0 11.3 0.00 0.00 0.00 44 1008.3
20260509172403 15 21 0.0 11.3 0.00 0.00 0.00 44 1008.3
20260509172336 15 7 0.0 11.3 0.00 0.00 0.00 44 1008.3
20260509172234 15 347 0.0 11.3 0.00 0.00 0.00 45 1008.4
20260509171933 16 0 0.0 11.3 0.00 0.00 0.00 44 1008.3
20260509171903 16 24 0.0 11.3 0.00 0.00 0.00 48 1008.3
20260509171733 15 250 0.0 11.3 0.00 0.00 0.00 46 1008.2
20260509171533 15 307 0.0 11.3 0.00 0.00 0.00 45 1008.2
20260509171404 15 206 0.0 11.3 0.00 0.00 0.00 45 1008.2
20260509171333 15 216 0.0 11.3 0.00 0.00 0.00 46 1008.2
20260509171132 15 21 0.0 14.5 0.00 0.00 0.00 44 1008.1
20260509170931 15 248 0.0 14.5 0.00 0.00 0.00 45 1008.1
20260509170903 15 247 0.0 14.5 0.00 0.00 0.00 45 1008.1
20260509170730 15 255 0.0 19.3 0.00 0.00 0.00 45 1008.2
20260509170530 15 261 0.0 19.3 0.00 0.00 0.00 46 1008.1
20260509170401 15 247 0.0 19.3 0.00 0.00 0.00 45 1008.1
20260509170330 15 247 0.0 19.3 0.00 0.00 0.00 45 1008.1
20260509170130 15 264 0.0 19.3 0.00 0.00 0.00 49 1008.2
20260509165930 15 220 0.0 19.3 0.00 0.00 0.00 46 1008.3
20260509165859 15 235 0.0 19.3 0.00 0.00 0.00 46 1008.3
20260509165830 15 244 0.0 19.3 0.00 0.00 0.00 42 1008.3
20260509165529 15 309 0.0 19.3 0.00 0.00 0.00 48 1008.2
20260509165358 15 247 0.0 14.5 0.00 0.00 0.00 48 1008.2
20260509165329 15 231 0.0 14.5 0.00 0.00 0.00 45 1008.1
20260509165128 15 0 0.0 14.5 0.00 0.00 0.00 43 1008.1
20260509164929 15 13 0.0 14.5 0.00 0.00 0.00 47 1008.2
20260509164903 15 34 0.0 14.5 0.00 0.00 0.00 47 1008.2
20260509164728 15 38 0.0 11.3 0.00 0.00 0.00 47 1008.1
20260509164527 15 0 0.0 16.1 0.00 0.00 0.00 47 1008.1
20260509164358 15 235 0.0 17.7 0.00 0.00 0.00 44 1008.0
20260509164326 15 231 0.0 17.7 0.00 0.00 0.00 46 1008.1
20260509164222 15 213 0.0 17.7 0.00 0.00 0.00 46 1008.0
20260509163922 15 333 0.0 17.7 0.00 0.00 0.00 44 1008.1
20260509163856 15 357 0.0 17.7 0.00 0.00 0.00 48 1008.1
20260509163723 15 58 0.0 17.7 0.00 0.00 0.00 45 1008.2
20260509163523 15 244 0.0 17.7 0.00 0.00 0.00 45 1008.3
20260509163355 15 116 0.0 16.1 0.00 0.00 0.00 45 1007.9
20260509163319 15 254 0.0 16.1 0.00 0.00 0.00 46 1008.0
20260509163119 15 252 0.0 16.1 0.00 0.00 0.00 47 1007.9
20260509162920 15 272 0.0 14.5 0.00 0.00 0.00 44 1007.9
20260509162855 15 298 0.0 14.5 0.00 0.00 0.00 43 1007.9
20260509162717 15 195 0.0 14.5 0.00 0.00 0.00 46 1007.8
20260509162518 15 238 0.0 14.5 0.00 0.00 0.00 53 1007.9
20260509162353 15 245 0.0 14.5 0.00 0.00 0.00 45 1007.8
20260509162319 15 295 0.0 14.5 0.00 0.00 0.00 45 1007.8
20260509162200 15 248 0.0 14.5 0.00 0.00 0.00 47 1007.8
20260509162149 15 216 0.0 14.5 0.00 0.00 0.00 47 1007.8
20260509162120 15 255 0.0 14.5 0.00 0.00 0.00 46 1007.8
20260509161716 15 217 0.0 14.5 0.00 0.00 0.00 46 1007.6
20260509161614 15 44 0.0 11.3 0.00 0.00 0.00 47 1007.6
20260509161354 15 271 0.0 11.3 0.00 0.00 0.00 45 1007.5
20260509161309 15 96 0.0 11.3 0.00 0.00 0.00 48 1007.6
20260509161156 15 338 0.0 14.5 0.00 0.00 0.00 46 1007.6
20260509161141 15 145 0.0 14.5 0.00 0.00 0.00 45 1007.6
20260509161112 15 334 0.0 14.5 0.00 0.00 0.00 46 1007.6
20260509160707 15 121 0.0 14.5 0.00 0.00 0.00 47 1007.6
20260509160505 15 89 0.0 17.7 0.00 0.00 0.00 47 1007.5
20260509160352 15 320 0.0 17.7 0.00 0.00 0.00 46 1007.5
20260509160305 15 303 0.0 17.7 0.00 0.00 0.00 45 1007.5
20260509160211 15 258 0.0 17.7 0.00 0.00 0.00 53 1007.5
20260509160153 15 258 0.0 17.7 0.00 0.00 0.00 53 1007.5
20260509160139 15 299 0.0 17.7 0.00 0.00 0.00 49 1007.5
20260509155703 15 261 0.0 17.7 0.00 0.00 0.00 50 1007.5
20260509155508 15 255 0.0 9.7 0.00 0.00 0.00 47 1007.5
20260509155354 15 255 0.0 9.7 0.00 0.00 0.00 47 1007.4
20260509155307 15 255 0.0 9.7 0.00 0.00 0.00 47 1007.5
20260509155143 15 31 0.0 9.7 0.00 0.00 0.00 48 1007.3
20260509155129 15 68 0.0 9.7 0.00 0.00 0.00 49 1007.5
20260509155101 15 31 0.0 9.7 0.00 0.00 0.00 48 1007.4
20260509154651 14 209 0.0 9.7 0.00 0.00 0.00 47 1007.4
20260509154451 14 261 0.0 9.7 0.00 0.00 0.00 51 1007.4
20260509154334 14 66 0.0 9.7 0.00 0.00 0.00 50 1007.4
20260509154254 14 79 0.0 9.7 0.00 0.00 0.00 51 1007.4
20260509154034 14 35 0.0 9.7 0.00 0.00 0.00 49 1007.4
20260509153939 14 189 0.0 9.7 0.00 0.00 0.00 49 1007.3
20260509153836 14 189 0.0 9.7 0.00 0.00 0.00 49 1007.3
20260509153634 14 286 0.0 9.7 0.00 0.00 0.00 51 1007.3
20260509153433 13 261 0.0 14.5 0.00 0.00 0.00 51 1007.3
20260509153334 14 233 0.0 14.5 0.00 0.00 0.00 50 1007.3
20260509153234 14 193 0.0 14.5 0.00 0.00 0.00 50 1007.3
20260509153033 14 274 0.0 14.5 0.00 0.00 0.00 50 1007.2
20260509152834 14 313 0.0 14.5 0.00 0.00 0.00 52 1007.3
20260509152631 14 261 0.0 9.7 0.00 0.00 0.00 55 1007.2
20260509152430 14 54 0.0 9.7 0.00 0.00 0.00 54 1007.2
20260509152333 14 266 0.0 9.7 0.00 0.00 0.00 56 1007.2
20260509152328 13 251 0.0 9.7 0.00 0.00 0.00 56 1007.2
20260509152125 -17 0.0 0.0 0.00 0.00 0.00 1007.2
20260509152114 13 248 0.0 4.8 0.00 0.00 0.00 55 1007.1
20260509152051 -17 0.0 0.0 0.00 0.00 0.00 1007.2
20260509151328 13 110 0.0 11.3 0.00 0.00 0.00 56 1007.0
20260509151226 13 48 0.0 11.3 0.00 0.00 0.00 56 1007.0
20260509151127 13 66 0.0 11.3 0.00 0.00 0.00 55 1007.1
20260509151028 14 217 0.0 14.5 0.00 0.00 0.00 57 1007.0
20260509150727 13 111 0.0 14.5 0.00 0.00 0.00 59 1007.0
20260509150527 13 113 0.0 14.5 0.00 0.00 0.00 58 1006.9
20260509150327 13 169 0.0 14.5 0.00 0.00 0.00 54 1006.9
20260509150226 13 250 0.0 14.5 0.00 0.00 0.00 53 1006.9
20260509150127 13 49 0.0 14.5 0.00 0.00 0.00 53 1006.9
20260509150021 13 0 0.0 14.5 0.00 0.00 0.00 60 1006.9
20260509150007 13 61 0.0 14.5 0.00 0.00 0.00 57 1007.0
20260509145528 13 89 0.0 14.5 0.00 0.00 0.00 60 1006.8
20260509145327 13 131 0.0 14.5 0.00 0.00 0.00 59 1006.8
20260509145226 13 285 0.0 14.5 0.00 0.00 0.00 60 1006.8
20260509145127 13 68 0.0 9.7 0.00 0.00 0.00 59 1006.8
20260509144927 13 202 0.0 9.7 0.00 0.00 0.00 63 1006.7
20260509144727 13 24 0.0 8.0 0.00 0.00 0.00 62 1006.7
20260509144527 13 7 0.0 17.7 0.00 0.00 0.00 61 1006.7
20260509144327 13 16 0.0 17.7 0.00 0.00 0.00 61 1006.8
20260509144238 13 34 0.0 17.7 0.00 0.00 0.00 62 1006.7
20260509144228 13 11 0.0 17.7 0.00 0.00 0.00 62 1006.7
20260509143927 13 49 0.0 17.7 0.00 0.00 0.00 61 1006.6
20260509143727 13 0 0.0 17.7 0.00 0.00 0.00 59 1006.6
20260509143527 13 148 0.0 14.5 0.00 0.00 0.00 63 1006.6
20260509143327 13 0 0.0 14.5 0.00 0.00 0.00 63 1006.6
20260509143225 13 0 0.0 9.7 0.00 0.00 0.00 63 1006.6
20260509143128 13 271 0.0 11.3 0.00 0.00 0.00 63 1006.6
20260509142927 13 302 0.0 16.1 0.00 0.00 0.00 65 1006.5
20260509142728 13 0 0.0 16.1 0.00 0.00 0.00 65 1006.5
20260509142527 13 0 0.0 16.1 0.00 0.00 0.00 66 1006.4
20260509142327 13 258 0.0 16.1 0.00 0.00 0.00 64 1006.4
20260509142227 13 351 0.0 16.1 0.00 0.00 0.00 65 1006.4
20260509142127 13 278 0.0 16.1 0.00 0.00 0.00 65 1006.4
20260509142030 12 80 0.0 9.7 0.00 0.00 0.00 67 1006.4
20260509142012 13 250 0.0 9.7 0.00 0.00 0.00 67 1006.4
20260509141941 12 80 0.0 9.7 0.00 0.00 0.00 67 1006.4
20260509141529 12 16 0.0 9.7 0.00 0.00 0.00 68 1006.3
20260509141329 12 331 0.0 8.0 0.00 0.00 0.00 71 1006.2
20260509141236 12 41 0.0 8.0 0.00 0.00 0.00 70 1006.2
20260509141225 12 1 0.0 8.0 0.00 0.00 0.00 72 1006.2
20260509140927 12 62 0.0 8.0 0.00 0.00 0.00 70 1006.1
20260509140727 11 73 0.0 11.3 0.00 0.00 0.00 70 1006.1
20260509140526 11 41 0.0 11.3 0.00 0.00 0.00 70 1006.1
20260509140327 11 109 0.0 11.3 0.00 0.00 0.00 68 1006.1
20260509140227 12 250 0.0 11.3 0.00 0.00 0.00 68 1006.1
20260509140127 12 120 0.0 11.3 0.00 0.00 0.00 68 1006.0
20260509135927 12 61 0.0 11.3 0.00 0.00 0.00 68 1006.0
20260509135728 12 6 0.0 11.3 0.00 0.00 0.00 69 1005.9
20260509135626 12 0 0.0 11.3 0.00 0.00 0.00 68 1005.8
20260509135328 12 333 0.0 11.3 0.00 0.00 0.00 68 1005.9
20260509135226 12 333 0.0 11.3 0.00 0.00 0.00 67 1005.8
20260509135127 12 0 0.0 11.3 0.00 0.00 0.00 66 1005.9
20260509134926 12 357 0.0 11.3 0.00 0.00 0.00 66 1005.8
20260509134728 13 344 0.0 8.0 0.00 0.00 0.00 68 1005.8
20260509134527 13 24 0.0 6.4 0.00 0.00 0.00 68 1005.7
20260509134329 13 21 0.0 4.8 0.00 0.00 0.00 67 1005.6
20260509134228 13 21 0.0 4.8 0.00 0.00 0.00 67 1005.7
20260509134127 13 351 0.0 4.8 0.00 0.00 0.00 67 1005.7
20260509133929 13 25 0.0 4.8 0.00 0.00 0.00 70 1005.6
20260509133730 13 32 0.0 6.4 0.00 0.00 0.00 69 1005.6
20260509133702 13 48 0.0 6.4 0.00 0.00 0.00 69 1005.6
20260509133627 13 0 0.0 6.4 0.00 0.00 0.00 70 1005.5
20260509133455 13 80 0.0 6.4 0.00 0.00 0.00 72 1005.5
20260509133437 13 69 0.0 6.4 0.00 0.00 0.00 71 1005.6
20260509133126 13 82 0.0 6.4 0.00 0.00 0.00 72 1005.5
20260509132926 12 23 0.0 8.0 0.00 0.00 0.00 73 1005.5
20260509132728 12 175 0.0 8.0 0.00 0.00 0.00 73 1005.5
20260509132701 12 120 0.0 9.7 0.00 0.00 0.00 73 1005.5
20260509132527 12 51 0.0 11.3 0.00 0.00 0.00 72 1005.4
20260509132451 12 241 0.0 11.3 0.00 0.00 0.00 72 1005.4
20260509132435 12 226 0.0 11.3 0.00 0.00 0.00 72 1005.5
20260509132132 12 247 0.0 11.3 0.00 0.00 0.00 72 1005.4
20260509132032 12 274 0.0 11.3 0.00 0.00 0.00 73 1005.4
20260509131728 12 235 0.0 11.3 0.00 0.00 0.00 74 1005.3
20260509131700 12 223 0.0 11.3 0.00 0.00 0.00 74 1005.3
20260509131526 12 206 0.0 6.4 0.00 0.00 0.00 74 1005.3
20260509131453 12 30 0.0 6.4 0.00 0.00 0.00 75 1005.1
20260509131435 12 94 0.0 6.4 0.00 0.00 0.00 75 1005.2
20260509131128 12 30 0.0 6.4 0.00 0.00 0.00 76 1005.1
20260509130928 12 30 0.0 8.0 0.00 0.00 0.00 76 1005.1
20260509130730 11 252 0.0 8.0 0.00 0.00 0.00 77 1005.1
20260509130701 11 252 0.0 8.0 0.00 0.00 0.00 77 1005.0
20260509130539 11 278 0.0 8.0 0.00 0.00 0.00 77 1005.0
20260509130529 11 251 0.0 8.0 0.00 0.00 0.00 76 1005.0
20260509130452 11 264 0.0 8.0 0.00 0.00 0.00 77 1004.9
20260509130128 11 272 0.0 8.0 0.00 0.00 0.00 77 1004.9
20260509125927 11 313 0.0 8.0 0.00 0.00 0.00 77 1005.0
20260509125728 11 135 0.0 9.7 0.00 0.00 0.00 77 1004.9
20260509125701 11 0 0.0 9.7 0.00 0.00 0.00 77 1004.9
20260509125528 11 20 0.0 9.7 0.00 0.00 0.00 77 1004.9
20260509125329 11 20 0.0 9.7 0.00 0.00 0.00 77 1004.9
20260509125202 11 20 0.0 9.7 0.00 0.00 0.00 77 1004.9
20260509125129 11 34 0.0 9.7 0.00 0.00 0.00 77 1004.9
20260509125013 11 298 0.0 9.7 0.00 0.00 0.00 77 1004.9
20260509124945 11 298 0.0 9.7 0.00 0.00 0.00 77 1004.9
20260509124939 11 213 0.0 9.7 0.00 0.00 0.00 77 1004.9
20260509124527 11 214 0.0 9.7 0.00 0.00 0.00 77 1004.7
20260509124329 11 231 0.0 9.7 0.00 0.00 0.00 77 1004.7
20260509124148 11 159 0.0 9.7 0.00 0.00 0.00 77 1004.7
20260509124123 11 227 0.0 9.7 0.00 0.00 0.00 77 1004.7
20260509123941 11 30 0.0 8.0 0.00 0.00 0.00 77 1004.6
20260509123931 11 123 0.0 9.7 0.00 0.00 0.00 77 1004.6
20260509123904 11 331 0.0 8.0 0.00 0.00 0.00 77 1004.6
20260509123520 11 123 0.0 6.4 0.00 0.00 0.00 77 1004.6
20260509123325 11 123 0.0 6.4 0.00 0.00 0.00 77 1004.6
20260509123222 11 243 0.0 6.4 0.00 0.00 0.00 76 1004.5
20260509123142 11 302 0.0 6.4 0.00 0.00 0.00 77 1004.6
20260509122934 11 49 0.0 6.4 0.00 0.00 0.00 77 1004.5
20260509122928 11 0 0.0 6.4 0.00 0.00 0.00 77 1004.5
20260509122901 11 185 0.0 6.4 0.00 0.00 0.00 77 1004.5
20260509122521 11 20 0.0 6.4 0.00 0.00 0.00 77 1004.4
20260509122318 11 110 0.0 6.4 0.00 0.00 0.00 77 1004.4
20260509122120 11 250 0.0 8.0 0.00 0.00 0.00 76 1004.4
20260509121917 11 252 0.0 8.0 0.00 0.00 0.00 76 1004.3
20260509121717 11 196 0.0 11.3 0.00 0.00 0.00 76 1004.4
20260509121635 11 228 0.0 11.3 0.00 0.00 0.00 76 1004.4
20260509121517 11 251 0.0 16.1 0.00 0.00 0.00 75 1004.3
20260509121317 11 289 0.0 16.1 0.00 0.00 0.00 75 1004.2
20260509121214 11 137 0.0 16.1 0.00 0.00 0.00 74 1004.3
20260509121134 11 137 0.0 16.1 0.00 0.00 0.00 74 1004.3
20260509120915 11 269 0.0 16.1 0.00 0.00 0.00 74 1004.2
20260509120713 11 216 0.0 16.1 0.00 0.00 0.00 74 1004.0
20260509120636 11 248 0.0 16.1 0.00 0.00 0.00 74 1004.0
20260509120511 11 241 0.0 19.3 0.00 0.00 0.00 74 1004.0
20260509120311 11 241 0.0 19.3 0.00 0.00 0.00 74 1003.9
20260509120110 11 223 0.0 19.3 0.00 0.00 0.00 74 1003.9
20260509115911 11 203 0.0 19.3 0.00 0.00 0.00 74 1004.0
20260509115712 11 228 0.0 19.3 0.00 0.00 0.00 73 1003.8
20260509115633 11 228 0.0 19.3 0.00 0.00 0.00 73 1003.8
20260509115607 11 238 0.0 11.3 0.00 0.00 0.00 73 1003.8
20260509115308 11 250 0.0 11.3 0.00 0.00 0.00 73 1003.7
20260509115138 11 248 0.0 9.7 0.00 0.00 0.00 73 1003.7
20260509115106 11 234 0.0 9.7 0.00 0.00 0.00 73 1003.7
20260509114905 11 250 0.0 9.7 0.00 0.00 0.00 73 1003.7
20260509114705 11 250 0.0 9.7 0.00 0.00 0.00 73 1003.7
20260509114633 11 250 0.0 9.7 0.00 0.00 0.00 73 1003.7
20260509114505 11 252 0.0 9.7 0.00 0.00 0.00 73 1003.8
20260509114302 11 250 0.0 9.7 0.00 0.00 0.00 73 1003.7
20260509114133 11 230 0.0 6.4 0.00 0.00 0.00 73 1003.7
20260509114103 11 230 0.0 6.4 0.00 0.00 0.00 73 1003.6
20260509113903 11 250 0.0 4.8 0.00 0.00 0.00 73 1003.5
20260509113703 11 247 0.0 4.8 0.00 0.00 0.00 73 1003.5
20260509113632 11 247 0.0 4.8 0.00 0.00 0.00 73 1003.5
20260509113604 11 248 0.0 4.8 0.00 0.00 0.00 73 1003.5
20260509113304 11 248 0.0 3.2 0.00 0.00 0.00 73 1003.5
20260509113103 11 248 0.0 3.2 0.00 0.00 0.00 73 1003.5
20260509112904 11 248 0.0 3.2 0.00 0.00 0.00 73 1003.4
20260509112631 11 248 0.0 3.2 0.00 0.00 0.00 73 1003.4
20260509112433 11 248 0.0 1.6 0.00 0.00 0.00 73 1003.4
20260509112230 11 248 0.0 4.8 0.00 0.00 0.00 72 1003.3
20260509112129 11 248 0.0 4.8 0.00 0.00 0.00 72 1003.4
20260509112036 11 248 0.0 4.8 0.00 0.00 0.00 72 1003.2
20260509111933 11 248 0.0 4.8 0.00 0.00 0.00 72 1003.3
20260509111629 11 248 0.0 4.8 0.00 0.00 0.00 72 1003.2
20260509111428 11 247 0.0 4.8 0.00 0.00 0.00 72 1003.2
20260509111225 11 247 0.0 3.2 0.00 0.00 0.00 72 1003.1
20260509111129 11 247 0.0 3.2 0.00 0.00 0.00 72 1003.2
20260509111010 11 247 0.0 3.2 0.00 0.00 0.00 72 1003.1
20260509110809 11 247 0.0 6.4 0.00 0.00 0.00 72 1003.0
20260509110627 11 247 0.0 6.4 0.00 0.00 0.00 72 1003.2
20260509110606 11 247 0.0 6.4 0.00 0.00 0.00 71 1003.1
20260509110404 11 247 0.0 6.4 0.00 0.00 0.00 71 1003.2
20260509110302 11 247 0.0 6.4 0.00 0.00 0.00 71 1003.1
20260509110125 11 247 0.0 6.4 0.00 0.00 0.00 72 1003.1
20260509110004 11 247 0.0 6.4 0.00 0.00 0.00 72 1003.1
20260509105804 11 258 0.0 3.2 0.00 0.00 0.00 72 1003.1
20260509105603 11 258 0.0 3.2 0.00 0.00 0.00 72 1003.1
20260509105406 11 258 0.0 3.2 0.00 0.00 0.00 72 1003.0
20260509105204 11 258 0.0 3.2 0.00 0.00 0.00 73 1003.0
20260509105126 11 258 0.0 3.2 0.00 0.00 0.00 72 1003.0
20260509105005 11 258 0.0 3.2 0.00 0.00 0.00 72 1002.9
20260509104801 11 258 0.0 4.8 0.00 0.00 0.00 72 1002.9
20260509104706 11 258 0.0 4.8 0.00 0.00 0.00 71 1003.1
20260509104625 11 258 0.0 4.8 0.00 0.00 0.00 71 1003.0
20260509104402 11 258 0.0 4.8 0.00 0.00 0.00 71 1003.1
20260509104201 11 258 0.0 4.8 0.00 0.00 0.00 71 1003.0
20260509104115 11 258 0.0 4.8 0.00 0.00 0.00 71 1003.1
20260509104005 11 258 0.0 4.8 0.00 0.00 0.00 71 1003.0
20260509103758 11 258 0.0 3.2 0.00 0.00 0.00 70 1002.9
20260509103615 11 258 0.0 3.2 0.00 0.00 0.00 68 1002.7
20260509103600 11 258 0.0 3.2 0.00 0.00 0.00 68 1002.7
20260509103359 11 258 0.0 3.2 0.00 0.00 0.00 68 1002.6
20260509103158 11 258 0.0 3.2 0.00 0.00 0.00 67 1002.6
20260509103113 11 258 0.0 3.2 0.00 0.00 0.00 67 1002.6
20260509103055 11 258 0.0 3.2 0.00 0.00 0.00 67 1002.5
20260509102754 11 258 0.0 3.2 0.00 0.00 0.00 66 1002.5
20260509102610 11 258 0.0 3.2 0.00 0.00 0.00 66 1002.6
20260509102554 11 258 0.0 1.6 0.00 0.00 0.00 66 1002.6
20260509102351 11 258 0.0 1.6 0.00 0.00 0.00 66 1002.6
20260509102150 11 258 0.0 3.2 0.00 0.00 0.00 66 1002.6
20260509102112 11 258 0.0 3.2 0.00 0.00 0.00 66 1002.7
20260509101955 11 258 0.0 3.2 0.00 0.00 0.00 66 1002.7
20260509101903 11 258 0.0 3.2 0.00 0.00 0.00 66 1002.9
20260509101844 11 258 0.0 3.2 0.00 0.00 0.00 66 1002.8
20260509101549 11 258 0.0 3.2 0.00 0.00 0.00 66 1002.9
20260509101349 11 258 0.0 3.2 0.00 0.00 0.00 67 1002.8
20260509101150 11 258 0.0 3.2 0.00 0.00 0.00 67 1002.8
20260509101108 11 258 0.0 3.2 0.00 0.00 0.00 67 1002.8
20260509101046 11 258 0.0 3.2 0.00 0.00 0.00 65 1002.8
20260509100857 11 258 0.0 3.2 0.00 0.00 0.00 64 1002.7
20260509100840 11 258 0.0 3.2 0.00 0.00 0.00 64 1002.7
20260509100546 11 258 0.0 3.2 0.00 0.00 0.00 64 1002.7
20260509100349 11 258 0.0 3.2 0.00 0.00 0.00 64 1002.7
20260509100141 11 258 0.0 1.6 0.00 0.00 0.00 64 1002.8
20260509100108 11 258 0.0 1.6 0.00 0.00 0.00 64 1002.9
20260509095940 11 258 0.0 3.2 0.00 0.00 0.00 64 1002.9
20260509095858 11 258 0.0 3.2 0.00 0.00 0.00 65 1003.2
20260509095841 11 258 0.0 3.2 0.00 0.00 0.00 65 1003.1
20260509095533 11 258 0.0 3.2 0.00 0.00 0.00 65 1003.2
20260509095435 11 258 0.0 3.2 0.00 0.00 0.00 65 1003.2
20260509095132 11 258 0.0 3.2 0.00 0.00 0.00 64 1003.3
20260509095107 11 258 0.0 3.2 0.00 0.00 0.00 64 1003.2
20260509094931 11 207 0.0 1.6 0.00 0.00 0.00 64 1003.2
20260509094901 11 207 0.0 1.6 0.00 0.00 0.00 64 1003.1
20260509094839 11 207 0.0 1.6 0.00 0.00 0.00 64 1003.2
20260509094530 11 207 0.0 3.2 0.00 0.00 0.00 64 1003.1
20260509094330 11 207 0.0 3.2 0.00 0.00 0.00 64 1003.3
20260509094108 11 207 0.0 3.2 0.00 0.00 0.00 64 1003.1
20260509093931 11 207 0.0 3.2 0.00 0.00 0.00 64 1003.1
20260509093730 11 207 0.0 3.2 0.00 0.00 0.00 63 1003.0
20260509093607 11 207 0.0 3.2 0.00 0.00 0.00 63 1003.0
20260509093532 11 207 0.0 1.6 0.00 0.00 0.00 62 1003.0
20260509093333 11 207 0.0 3.2 0.00 0.00 0.00 62 1003.0
20260509093130 11 207 0.0 3.2 0.00 0.00 0.00 61 1003.1
20260509093108 11 207 0.0 3.2 0.00 0.00 0.00 61 1003.0
20260509093024 11 207 0.0 3.2 0.00 0.00 0.00 61 1003.1
20260509092726 11 207 0.0 3.2 0.00 0.00 0.00 62 1003.1
20260509092607 11 207 0.0 3.2 0.00 0.00 0.00 62 1003.0
20260509092523 10 207 0.0 3.2 0.00 0.00 0.00 61 1003.0
20260509092323 10 207 0.0 1.6 0.00 0.00 0.00 60 1003.0
20260509092102 10 207 0.0 1.6 0.00 0.00 0.00 60 1002.9
20260509091924 10 207 0.0 1.6 0.00 0.00 0.00 60 1003.0
20260509091723 10 207 0.0 1.6 0.00 0.00 0.00 60 1003.0
20260509091603 10 207 0.0 1.6 0.00 0.00 0.00 60 1003.0
20260509091524 10 207 0.0 0.0 0.00 0.00 0.00 60 1002.9
20260509091423 11 207 0.0 0.0 0.00 0.00 0.00 59 1002.9
20260509091103 11 207 0.0 0.0 0.00 0.00 0.00 59 1002.8
20260509090909 11 207 0.0 0.0 0.00 0.00 0.00 59 1002.9
20260509090636 11 207 0.0 0.0 0.00 0.00 0.00 59 1002.8
20260509090555 11 207 0.0 0.0 0.00 0.00 0.00 59 1002.8
20260509090435 11 207 0.0 0.0 0.00 0.00 0.00 59 1002.6
20260509090235 11 207 0.0 1.6 0.00 0.00 0.00 59 1002.7
20260509090033 11 207 0.0 1.6 0.00 0.00 0.00 58 1002.7
20260509085833 11 207 0.0 3.2 0.00 0.00 0.00 58 1002.7
20260509085730 11 207 0.0 4.8 0.00 0.00 0.00 57 1002.6
20260509085546 11 207 0.0 4.8 0.00 0.00 0.00 57 1002.7
20260509085433 11 207 0.0 4.8 0.00 0.00 0.00 57 1002.8
20260509085231 11 207 0.0 4.8 0.00 0.00 0.00 57 1002.9
20260509085032 11 207 0.0 4.8 0.00 0.00 0.00 56 1002.7
20260509084830 11 207 0.0 4.8 0.00 0.00 0.00 56 1002.6
20260509084825 11 206 0.0 4.8 0.00 0.00 0.00 57 1002.6
20260509084800 11 206 0.0 4.8 0.00 0.00 0.00 56 1002.7
20260509084430 11 203 0.0 6.4 0.00 0.00 0.00 56 1002.7
20260509084228 11 173 0.0 6.4 0.00 0.00 0.00 56 1002.7
20260509084127 11 138 0.0 9.7 0.00 0.00 0.00 56 1002.5
20260509084030 11 138 0.0 9.7 0.00 0.00 0.00 56 1002.5
20260509083828 11 94 0.0 9.7 0.00 0.00 0.00 57 1002.8
20260509083823 11 180 0.0 9.7 0.00 0.00 0.00 56 1002.6
20260509083757 11 180 0.0 9.7 0.00 0.00 0.00 56 1002.6
20260509083427 11 148 0.0 9.7 0.00 0.00 0.00 55 1002.7
20260509083225 11 250 0.0 9.7 0.00 0.00 0.00 57 1002.6
20260509083024 11 288 0.0 9.7 0.00 0.00 0.00 55 1002.6
20260509082830 11 257 0.0 9.7 0.00 0.00 0.00 54 1001.9
20260509082810 11 245 0.0 9.7 0.00 0.00 0.00 55 1001.8
20260509082806 11 245 0.0 9.7 0.00 0.00 0.00 55 1001.8
20260509082751 11 245 0.0 9.7 0.00 0.00 0.00 55 1001.9
20260509082223 11 207 0.0 9.7 0.00 0.00 0.00 56 1001.6
20260509082019 11 213 0.0 6.4 0.00 0.00 0.00 57 1001.7
20260509081819 11 213 0.0 6.4 0.00 0.00 0.00 58 1001.7
20260509081615 11 209 0.0 6.4 0.00 0.00 0.00 58 1001.7
20260509081529 10 220 0.0 4.8 0.00 0.00 0.00 59 1001.7
20260509081416 10 227 0.0 4.8 0.00 0.00 0.00 59 1001.7
20260509081214 10 228 0.0 4.8 0.00 0.00 0.00 60 1001.7
20260509081029 10 228 0.0 4.8 0.00 0.00 0.00 61 1001.7
20260509081013 10 228 0.0 4.8 0.00 0.00 0.00 62 1001.6
20260509080846 10 223 0.0 4.8 0.00 0.00 0.00 64 1001.6
20260509080826 9 285 0.0 4.8 0.00 0.00 0.00 64 1001.6
20260509080815 10 223 0.0 4.8 0.00 0.00 0.00 61 1001.7
20260509080405 9 285 0.0 4.8 0.00 0.00 0.00 65 1001.6
20260509080203 9 309 0.0 0.0 0.00 0.00 0.00 67 1001.6
20260509080026 9 309 0.0 1.6 0.00 0.00 0.00 68 1001.6
20260509080003 8 309 0.0 1.6 0.00 0.00 0.00 68 1001.6
20260509075824 8 309 0.0 1.6 0.00 0.00 0.00 70 1001.7
20260509075814 8 309 0.0 1.6 0.00 0.00 0.00 68 1001.6
20260509075748 8 309 0.0 1.6 0.00 0.00 0.00 69 1001.7
20260509075402 8 309 0.0 1.6 0.00 0.00 0.00 70 1001.7
20260509075137 8 309 0.0 1.6 0.00 0.00 0.00 69 1001.7
20260509075037 8 309 0.0 1.6 0.00 0.00 0.00 69 1001.6
20260509075025 8 309 0.0 1.6 0.00 0.00 0.00 69 1001.6
20260509074821 8 309 0.0 1.6 0.00 0.00 0.00 69 1001.5
20260509074808 8 309 0.0 1.6 0.00 0.00 0.00 69 1001.5
20260509074738 8 309 0.0 1.6 0.00 0.00 0.00 69 1001.5
20260509074336 8 309 0.0 0.0 0.00 0.00 0.00 69 1001.4
20260509074133 8 309 0.0 0.0 0.00 0.00 0.00 69 1001.5
20260509074023 8 309 0.0 0.0 0.00 0.00 0.00 69 1001.5
20260509073931 8 309 0.0 0.0 0.00 0.00 0.00 69 1001.5
20260509073731 8 309 0.0 0.0 0.00 0.00 0.00 69 1001.5
20260509073524 8 309 0.0 0.0 0.00 0.00 0.00 69 1001.5
20260509073333 8 309 0.0 0.0 0.00 0.00 0.00 68 1001.5
20260509073133 8 309 0.0 0.0 0.00 0.00 0.00 68 1001.5
20260509073022 8 309 0.0 0.0 0.00 0.00 0.00 68 1001.4
20260509072934 8 309 0.0 0.0 0.00 0.00 0.00 68 1001.6
20260509072821 8 309 0.0 0.0 0.00 0.00 0.00 67 1001.6
20260509072811 8 309 0.0 0.0 0.00 0.00 0.00 68 1001.6
20260509072739 8 309 0.0 0.0 0.00 0.00 0.00 67 1001.6
20260509072427 8 309 0.0 0.0 0.00 0.00 0.00 67 1001.7
20260509072129 8 309 0.0 0.0 0.00 0.00 0.00 67 1001.7
20260509072032 8 309 0.0 0.0 0.00 0.00 0.00 66 1001.8
20260509071930 8 309 0.0 0.0 0.00 0.00 0.00 66 1001.7
20260509071829 8 309 0.0 0.0 0.00 0.00 0.00 66 1001.8
20260509071813 8 309 0.0 0.0 0.00 0.00 0.00 66 1001.7
20260509071741 8 309 0.0 0.0 0.00 0.00 0.00 66 1001.8
20260509071326 8 309 0.0 0.0 0.00 0.00 0.00 66 1001.9
20260509071126 8 309 0.0 0.0 0.00 0.00 0.00 66 1001.8
20260509071019 8 309 0.0 0.0 0.00 0.00 0.00 65 1001.9
20260509070927 8 309 0.0 0.0 0.00 0.00 0.00 65 1001.9
20260509070910 8 309 0.0 0.0 0.00 0.00 0.00 64 1001.9
20260509070818 8 309 0.0 0.0 0.00 0.00 0.00 64 1001.8
20260509070738 8 309 0.0 0.0 0.00 0.00 0.00 64 1001.8
20260509070326 8 309 0.0 0.0 0.00 0.00 0.00 63 1001.9
20260509070126 8 309 0.0 0.0 0.00 0.00 0.00 63 1001.7
20260509070051 8 309 0.0 0.0 0.00 0.00 0.00 63 1001.8
20260509065941 8 309 0.0 1.6 0.00 0.00 0.00 63 1001.8
20260509065728 8 309 0.0 1.6 0.00 0.00 0.00 65 1001.9
20260509065530 8 309 0.0 3.2 0.00 0.00 0.00 65 1002.0
20260509065520 8 309 0.0 3.2 0.00 0.00 0.00 65 1001.9
20260509065327 8 309 0.0 3.2 0.00 0.00 0.00 64 1002.0
20260509065221 8 309 0.0 3.2 0.00 0.00 0.00 64 1001.9
20260509065019 8 309 0.0 3.2 0.00 0.00 0.00 64 1002.0
20260509064927 8 309 0.0 3.2 0.00 0.00 0.00 64 1002.0
20260509064726 8 309 0.0 3.2 0.00 0.00 0.00 64 1002.0
20260509064518 8 309 0.0 1.6 0.00 0.00 0.00 64 1002.0
20260509064326 8 309 0.0 0.0 0.00 0.00 0.00 64 1002.1
20260509064126 8 309 0.0 0.0 0.00 0.00 0.00 63 1002.2
20260509064015 8 309 0.0 0.0 0.00 0.00 0.00 63 1002.1
20260509063927 8 309 0.0 0.0 0.00 0.00 0.00 63 1002.1
20260509063726 8 309 0.0 0.0 0.00 0.00 0.00 63 1002.2
20260509063628 8 309 0.0 0.0 0.00 0.00 0.00 63 1002.3
20260509063515 8 309 0.0 0.0 0.00 0.00 0.00 63 1002.3
20260509063327 8 309 0.0 0.0 0.00 0.00 0.00 61 1002.2
20260509063126 8 309 0.0 0.0 0.00 0.00 0.00 62 1002.4
20260509063013 8 309 0.0 0.0 0.00 0.00 0.00 63 1002.3
20260509062929 8 309 0.0 0.0 0.00 0.00 0.00 64 1002.3
20260509062726 8 309 0.0 0.0 0.00 0.00 0.00 66 1002.3
20260509062528 8 309 0.0 0.0 0.00 0.00 0.00 65 1002.3
20260509062514 8 309 0.0 0.0 0.00 0.00 0.00 64 1002.2
20260509062326 8 309 0.0 0.0 0.00 0.00 0.00 63 1002.2
20260509062126 8 309 0.0 0.0 0.00 0.00 0.00 62 1002.2
20260509062032 8 309 0.0 0.0 0.00 0.00 0.00 64 1002.1
20260509062014 8 309 0.0 0.0 0.00 0.00 0.00 63 1002.1
20260509061726 8 309 0.0 0.0 0.00 0.00 0.00 64 1002.2
20260509061528 8 309 0.0 0.0 0.00 0.00 0.00 64 1002.3
20260509061512 9 309 0.0 0.0 0.00 0.00 0.00 64 1002.3
20260509061326 9 309 0.0 0.0 0.00 0.00 0.00 62 1002.3
20260509061126 9 309 0.0 0.0 0.00 0.00 0.00 62 1002.3
20260509061011 9 309 0.0 0.0 0.00 0.00 0.00 62 1002.3
20260509060927 9 309 0.0 0.0 0.00 0.00 0.00 62 1002.3
20260509060727 9 309 0.0 0.0 0.00 0.00 0.00 63 1002.4
20260509060511 9 309 0.0 0.0 0.00 0.00 0.00 63 1002.3
20260509060326 9 309 0.0 0.0 0.00 0.00 0.00 60 1002.2
20260509060220 9 309 0.0 0.0 0.00 0.00 0.00 59 1002.2
20260509060009 9 309 0.0 0.0 0.00 0.00 0.00 59 1002.4
20260509055928 9 309 0.0 0.0 0.00 0.00 0.00 59 1002.4
20260509055727 10 309 0.0 0.0 0.00 0.00 0.00 59 1002.3
20260509055527 10 309 0.0 0.0 0.00 0.00 0.00 59 1002.4
20260509055507 10 309 0.0 0.0 0.00 0.00 0.00 58 1002.4
20260509055326 10 309 0.0 0.0 0.00 0.00 0.00 58 1002.4
20260509055130 10 309 0.0 0.0 0.00 0.00 0.00 57 1002.5
20260509055003 10 309 0.0 0.0 0.00 0.00 0.00 58 1002.5
20260509054927 10 309 0.0 0.0 0.00 0.00 0.00 58 1002.5
20260509054726 10 309 0.0 0.0 0.00 0.00 0.00 56 1002.6
20260509054629 10 309 0.0 0.0 0.00 0.00 0.00 56 1002.6
20260509054503 10 309 0.0 0.0 0.00 0.00 0.00 56 1002.7
20260509054326 10 309 0.0 0.0 0.00 0.00 0.00 56 1002.7
20260509054127 10 309 0.0 0.0 0.00 0.00 0.00 58 1002.8
20260509054000 10 309 0.0 0.0 0.00 0.00 0.00 58 1002.8
20260509053928 10 309 0.0 0.0 0.00 0.00 0.00 57 1002.8
20260509053809 10 309 0.0 0.0 0.00 0.00 0.00 59 1002.8
20260509053759 10 309 0.0 0.0 0.00 0.00 0.00 56 1002.7
20260509053724 10 309 0.0 0.0 0.00 0.00 0.00 59 1002.7
20260509053326 10 309 0.0 0.0 0.00 0.00 0.00 60 1002.8
20260509053129 11 309 0.0 0.0 0.00 0.00 0.00 59 1002.9
20260509053002 11 309 0.0 0.0 0.00 0.00 0.00 60 1002.8
20260509052927 11 309 0.0 0.0 0.00 0.00 0.00 62 1002.8
20260509052726 11 309 0.0 0.0 0.00 0.00 0.00 61 1002.9
20260509052528 11 309 0.0 0.0 0.00 0.00 0.00 57 1002.8
20260509052502 11 309 0.0 0.0 0.00 0.00 0.00 57 1002.7
20260509052328 11 309 0.0 0.0 0.00 0.00 0.00 55 1002.7
20260509052225 11 309 0.0 0.0 0.00 0.00 0.00 53 1002.7
20260509052002 11 309 0.0 0.0 0.00 0.00 0.00 52 1002.7
20260509051927 11 309 0.0 0.0 0.00 0.00 0.00 52 1002.7
20260509051727 11 309 0.0 0.0 0.00 0.00 0.00 50 1002.7
20260509051529 12 309 0.0 0.0 0.00 0.00 0.00 51 1002.8
20260509051501 12 309 0.0 0.0 0.00 0.00 0.00 51 1002.7
20260509051328 12 309 0.0 0.0 0.00 0.00 0.00 51 1002.8
20260509051128 12 309 0.0 0.0 0.00 0.00 0.00 52 1002.9
20260509051001 12 309 0.0 0.0 0.00 0.00 0.00 52 1002.9
20260509050929 12 309 0.0 0.0 0.00 0.00 0.00 52 1002.9
20260509050727 12 309 0.0 0.0 0.00 0.00 0.00 54 1003.0
20260509050626 12 309 0.0 0.0 0.00 0.00 0.00 52 1002.9
20260509050501 12 309 0.0 0.0 0.00 0.00 0.00 52 1003.0
20260509050326 12 309 0.0 0.0 0.00 0.00 0.00 52 1002.9
20260509050126 12 309 0.0 0.0 0.00 0.00 0.00 55 1003.1
20260509050002 13 309 0.0 0.0 0.00 0.00 0.00 57 1003.1
20260509045927 13 309 0.0 0.0 0.00 0.00 0.00 57 1003.1
20260509045726 13 309 0.0 0.0 0.00 0.00 0.00 54 1003.2
20260509045501 13 309 0.0 0.0 0.00 0.00 0.00 56 1003.1
20260509045327 13 309 0.0 0.0 0.00 0.00 0.00 57 1003.1
20260509045126 13 309 0.0 0.0 0.00 0.00 0.00 55 1003.1
20260509045002 13 309 0.0 0.0 0.00 0.00 0.00 53 1003.1
20260509044927 13 309 0.0 1.6 0.00 0.00 0.00 53 1003.1
20260509044725 13 309 0.0 1.6 0.00 0.00 0.00 51 1003.1
20260509044625 13 309 0.0 1.6 0.00 0.00 0.00 53 1003.1
20260509044502 13 309 0.0 1.6 0.00 0.00 0.00 52 1003.1
20260509044326 13 309 0.0 1.6 0.00 0.00 0.00 52 1003.1
20260509044127 13 309 0.0 1.6 0.00 0.00 0.00 53 1003.1
20260509044002 13 309 0.0 1.6 0.00 0.00 0.00 52 1003.2
20260509043928 13 309 0.0 1.6 0.00 0.00 0.00 52 1003.2
20260509043726 13 309 0.0 1.6 0.00 0.00 0.00 48 1003.2
20260509043527 13 309 0.0 1.6 0.00 0.00 0.00 45 1003.2
20260509043501 13 309 0.0 1.6 0.00 0.00 0.00 45 1003.1
20260509043327 13 309 0.0 1.6 0.00 0.00 0.00 43 1003.2
20260509043127 13 309 0.0 1.6 0.00 0.00 0.00 45 1003.3
20260509043032 14 309 0.0 1.6 0.00 0.00 0.00 44 1003.2
20260509043003 14 309 0.0 1.6 0.00 0.00 0.00 44 1003.2
20260509042727 14 309 0.0 1.6 0.00 0.00 0.00 44 1003.3
20260509042502 14 309 0.0 1.6 0.00 0.00 0.00 42 1003.3
20260509042327 14 309 0.0 1.6 0.00 0.00 0.00 42 1003.3
20260509042127 14 309 0.0 1.6 0.00 0.00 0.00 42 1003.3
20260509041927 14 309 0.0 3.2 0.00 0.00 0.00 42 1003.3
20260509041727 14 309 0.0 3.2 0.00 0.00 0.00 42 1003.2
20260509041525 14 309 0.0 3.2 0.00 0.00 0.00 42 1003.2
20260509041434 14 309 0.0 3.2 0.00 0.00 0.00 43 1003.2
20260509041324 15 309 0.0 3.2 0.00 0.00 0.00 43 1003.2
20260509041125 15 309 0.0 3.2 0.00 0.00 0.00 44 1003.2
20260509040924 15 309 0.0 3.2 0.00 0.00 0.00 44 1003.2
20260509040722 15 309 0.0 3.2 0.00 0.00 0.00 42 1003.1
20260509040523 15 309 0.0 3.2 0.00 0.00 0.00 41 1003.1
20260509040430 15 309 0.0 3.2 0.00 0.00 0.00 41 1003.2
20260509040418 15 309 0.0 3.2 0.00 0.00 0.00 42 1003.2
20260509040123 15 309 0.0 3.2 0.00 0.00 0.00 41 1003.2
20260509035923 15 310 0.0 3.2 0.00 0.00 0.00 42 1003.3
20260509035722 15 310 0.0 3.2 0.00 0.00 0.00 40 1003.2
20260509035522 15 317 0.0 3.2 0.00 0.00 0.00 41 1003.2
20260509035429 15 329 0.0 3.2 0.00 0.00 0.00 41 1003.2
20260509035321 15 329 0.0 3.2 0.00 0.00 0.00 41 1003.2
20260509035116 15 329 0.0 3.2 0.00 0.00 0.00 40 1003.1
20260509034929 15 336 0.0 3.2 0.00 0.00 0.00 40 1003.3
20260509034910 15 336 0.0 3.2 0.00 0.00 0.00 40 1003.2
20260509034805 15 247 0.0 3.2 0.00 0.00 0.00 41 1003.2
20260509034510 15 247 0.0 3.2 0.00 0.00 0.00 40 1003.2
20260509034429 15 247 0.0 3.2 0.00 0.00 0.00 41 1003.2
20260509034310 15 247 0.0 3.2 0.00 0.00 0.00 41 1003.1
20260509034109 15 247 0.0 4.8 0.00 0.00 0.00 40 1003.2
20260509033909 15 247 0.0 4.8 0.00 0.00 0.00 40 1003.2
20260509033710 15 247 0.0 4.8 0.00 0.00 0.00 39 1003.1
20260509033507 15 247 0.0 4.8 0.00 0.00 0.00 39 1003.2
20260509033428 15 247 0.0 4.8 0.00 0.00 0.00 39 1003.2
20260509033315 15 217 0.0 9.7 0.00 0.00 0.00 39 1003.2
20260509033307 15 247 0.0 4.8 0.00 0.00 0.00 40 1003.2
20260509033227 16 113 0.0 9.7 0.00 0.00 0.00 40 1003.1
20260509032906 16 111 0.0 9.7 0.00 0.00 0.00 39 1003.0
20260509032708 16 192 0.0 9.7 0.00 0.00 0.00 40 1003.1
20260509032505 16 192 0.0 9.7 0.00 0.00 0.00 40 1003.0
20260509032426 16 192 0.0 9.7 0.00 0.00 0.00 39 1003.0
20260509032307 16 0 0.0 9.7 0.00 0.00 0.00 39 1002.9
20260509032106 16 250 0.0 6.4 0.00 0.00 0.00 38 1003.0
20260509031925 16 213 0.0 4.8 0.00 0.00 0.00 40 1003.0
20260509031905 16 214 0.0 4.8 0.00 0.00 0.00 40 1003.1
20260509031802 16 259 0.0 4.8 0.00 0.00 0.00 39 1002.9
20260509031504 16 255 0.0 4.8 0.00 0.00 0.00 39 1003.0
20260509031425 16 255 0.0 4.8 0.00 0.00 0.00 39 1003.0
20260509031307 16 257 0.0 4.8 0.00 0.00 0.00 39 1002.9
20260509031106 16 161 0.0 4.8 0.00 0.00 0.00 40 1002.9
20260509030923 16 161 0.0 4.8 0.00 0.00 0.00 40 1002.8
20260509030850 16 161 0.0 8.0 0.00 0.00 0.00 40 1002.8
20260509030647 16 164 0.0 8.0 0.00 0.00 0.00 38 1002.8
20260509030445 16 192 0.0 8.0 0.00 0.00 0.00 39 1002.8
20260509030410 16 92 0.0 8.0 0.00 0.00 0.00 39 1002.8
20260509030245 16 37 0.0 8.0 0.00 0.00 0.00 38 1002.8
20260509030144 16 39 0.0 8.0 0.00 0.00 0.00 38 1002.9
20260509025904 16 251 0.0 6.4 0.00 0.00 0.00 37 1002.7
20260509025846 17 254 0.0 11.3 0.00 0.00 0.00 37 1002.7
20260509025631 17 238 0.0 11.3 0.00 0.00 0.00 37 1002.8
20260509025406 17 238 0.0 11.3 0.00 0.00 0.00 37 1002.8
20260509025227 17 278 0.0 11.3 0.00 0.00 0.00 38 1002.8
20260509025028 17 241 0.0 11.3 0.00 0.00 0.00 38 1002.7
20260509024859 17 271 0.0 11.3 0.00 0.00 0.00 38 1002.7
20260509024826 17 245 0.0 8.0 0.00 0.00 0.00 38 1002.7
20260509024627 17 254 0.0 8.0 0.00 0.00 0.00 37 1002.7
20260509024527 17 252 0.0 9.7 0.00 0.00 0.00 37 1002.6
20260509024359 17 261 0.0 9.7 0.00 0.00 0.00 37 1002.6
20260509024225 17 285 0.0 9.7 0.00 0.00 0.00 38 1002.6
20260509024023 17 245 0.0 9.7 0.00 0.00 0.00 37 1002.7
20260509023900 17 265 0.0 9.7 0.00 0.00 0.00 37 1002.6
20260509023806 17 269 0.0 9.7 0.00 0.00 0.00 37 1002.4
20260509023608 17 248 0.0 9.7 0.00 0.00 0.00 37 1002.5
20260509023407 17 251 0.0 9.7 0.00 0.00 0.00 37 1002.5
20260509023358 17 251 0.0 9.7 0.00 0.00 0.00 37 1002.5
20260509023205 17 196 0.0 9.7 0.00 0.00 0.00 36 1002.5
20260509023002 17 196 0.0 11.3 0.00 0.00 0.00 37 1002.5
20260509022913 17 219 0.0 11.3 0.00 0.00 0.00 37 1002.5
20260509022858 17 224 0.0 11.3 0.00 0.00 0.00 37 1002.6
20260509022602 17 250 0.0 11.3 0.00 0.00 0.00 37 1002.5
20260509022400 17 254 0.0 11.3 0.00 0.00 0.00 36 1002.5
20260509022158 17 257 0.0 11.3 0.00 0.00 0.00 35 1002.3
20260509021956 17 261 0.0 9.7 0.00 0.00 0.00 36 1002.3
20260509021856 17 261 0.0 9.7 0.00 0.00 0.00 36 1002.4
20260509021749 17 261 0.0 9.7 0.00 0.00 0.00 36 1002.3
20260509021551 17 244 0.0 9.7 0.00 0.00 0.00 35 1002.2
20260509021348 17 265 0.0 8.0 0.00 0.00 0.00 36 1002.3
20260509021249 17 252 0.0 8.0 0.00 0.00 0.00 36 1002.1
20260509020949 17 264 0.0 8.0 0.00 0.00 0.00 37 1002.1
20260509020848 17 247 0.0 8.0 0.00 0.00 0.00 36 1002.1
20260509020747 17 247 0.0 8.0 0.00 0.00 0.00 36 1002.0
20260509020548 17 240 0.0 9.7 0.00 0.00 0.00 36 1002.0
20260509020450 17 237 0.0 9.7 0.00 0.00 0.00 36 1002.0
20260509020346 17 237 0.0 9.7 0.00 0.00 0.00 36 1002.0
20260509020146 18 240 0.0 9.7 0.00 0.00 0.00 36 1001.9
20260509015945 18 213 0.0 9.7 0.00 0.00 0.00 35 1002.0
20260509015846 17 216 0.0 9.7 0.00 0.00 0.00 35 1001.9
20260509015746 18 227 0.0 9.7 0.00 0.00 0.00 36 1002.0
20260509015544 18 250 0.0 8.0 0.00 0.00 0.00 35 1001.9
20260509015348 18 226 0.0 8.0 0.00 0.00 0.00 34 1001.8
20260509015136 18 250 0.0 8.0 0.00 0.00 0.00 34 1001.9
20260509014938 18 217 0.0 20.9 0.00 0.00 0.00 34 1001.8
20260509014844 18 159 0.0 20.9 0.00 0.00 0.00 35 1001.8
20260509014835 18 217 0.0 20.9 0.00 0.00 0.00 35 1001.8
20260509014534 18 227 0.0 20.9 0.00 0.00 0.00 34 1001.8
20260509014335 18 250 0.0 20.9 0.00 0.00 0.00 34 1001.8
20260509014134 18 254 0.0 20.9 0.00 0.00 0.00 33 1001.7
20260509013933 18 252 0.0 8.0 0.00 0.00 0.00 34 1001.7
20260509013830 18 252 0.0 8.0 0.00 0.00 0.00 34 1001.7
20260509013735 18 252 0.0 8.0 0.00 0.00 0.00 33 1001.7
20260509013532 18 254 0.0 8.0 0.00 0.00 0.00 33 1001.6
20260509013331 18 241 0.0 11.3 0.00 0.00 0.00 34 1001.6
20260509013227 18 237 0.0 11.3 0.00 0.00 0.00 33 1001.6
20260509012931 18 241 0.0 11.3 0.00 0.00 0.00 32 1001.6
20260509012833 18 233 0.0 11.3 0.00 0.00 0.00 31 1001.5
20260509012732 18 252 0.0 11.3 0.00 0.00 0.00 32 1001.5
20260509012631 18 254 0.0 9.7 0.00 0.00 0.00 31 1001.5
20260509012616 18 276 0.0 11.3 0.00 0.00 0.00 31 1001.5
20260509012124 18 233 0.0 9.7 0.00 0.00 0.00 32 1001.4
20260509011924 19 274 0.0 9.7 0.00 0.00 0.00 31 1001.4
20260509011833 19 223 0.0 9.7 0.00 0.00 0.00 31 1001.5
20260509011726 19 216 0.0 9.7 0.00 0.00 0.00 31 1001.5
20260509011626 19 255 0.0 8.0 0.00 0.00 0.00 30 1001.5
20260509011608 19 254 0.0 8.0 0.00 0.00 0.00 31 1001.5
20260509011325 19 255 0.0 8.0 0.00 0.00 0.00 30 1001.5
20260509011106 19 255 0.0 9.7 0.00 0.00 0.00 30 1001.5
20260509010903 19 248 0.0 11.3 0.00 0.00 0.00 31 1001.4
20260509010828 19 243 0.0 14.5 0.00 0.00 0.00 31 1001.4
20260509010804 19 241 0.0 14.5 0.00 0.00 0.00 31 1001.4
20260509010608 20 247 0.0 17.7 0.00 0.00 0.00 29 1001.4
20260509010552 20 247 0.0 14.5 0.00 0.00 0.00 29 1001.4
20260509010305 20 243 0.0 17.7 0.00 0.00 0.00 29 1001.4
20260509010034 20 235 0.0 17.7 0.00 0.00 0.00 30 1001.3
20260509005833 20 233 0.0 17.7 0.00 0.00 0.00 31 1001.4
20260509005814 20 235 0.0 17.7 0.00 0.00 0.00 31 1001.4
20260509005634 20 258 0.0 17.7 0.00 0.00 0.00 30 1001.4
20260509005432 20 255 0.0 17.7 0.00 0.00 0.00 29 1001.3
20260509005318 20 262 0.0 17.7 0.00 0.00 0.00 30 1001.4
20260509005231 20 251 0.0 17.7 0.00 0.00 0.00 30 1001.4
20260509005127 20 243 0.0 17.7 0.00 0.00 0.00 31 1001.3
20260509004831 20 254 0.0 9.7 0.00 0.00 0.00 31 1001.2
20260509004815 20 254 0.0 9.7 0.00 0.00 0.00 31 1001.2
20260509004631 20 154 0.0 14.5 0.00 0.00 0.00 31 1001.3
20260509004529 20 233 0.0 14.5 0.00 0.00 0.00 31 1001.3
20260509004309 20 233 0.0 14.5 0.00 0.00 0.00 30 1001.2
20260509004230 20 259 0.0 14.5 0.00 0.00 0.00 31 1001.2
20260509004031 20 247 0.0 14.5 0.00 0.00 0.00 30 1001.2
20260509003830 20 251 0.0 14.5 0.00 0.00 0.00 31 1001.2
20260509003805 20 257 0.0 14.5 0.00 0.00 0.00 30 1001.2
20260509003630 20 252 0.0 14.5 0.00 0.00 0.00 30 1001.2
20260509003428 20 272 0.0 14.5 0.00 0.00 0.00 30 1001.2
20260509003305 20 278 0.0 14.5 0.00 0.00 0.00 30 1001.2
20260509003229 20 264 0.0 14.5 0.00 0.00 0.00 30 1001.2
20260509003027 20 227 0.0 14.5 0.00 0.00 0.00 31 1001.2
20260509002926 20 238 0.0 14.5 0.00 0.00 0.00 32 1001.1
20260509002806 20 190 0.0 14.5 0.00 0.00 0.00 31 1001.2
20260509002630 20 248 0.0 14.5 0.00 0.00 0.00 31 1001.2
20260509002427 21 248 0.0 14.5 0.00 0.00 0.00 31 1001.4
20260509002305 21 254 0.0 14.5 0.00 0.00 0.00 31 1001.2
20260509002217 21 245 0.0 14.5 0.00 0.00 0.00 31 1001.2
20260509002017 21 248 0.0 19.3 0.00 0.00 0.00 31 1001.2
20260509001803 21 224 0.0 19.3 0.00 0.00 0.00 32 1001.2
20260509001620 21 248 0.0 19.3 0.00 0.00 0.00 31 1001.2
20260509001413 21 238 0.0 19.3 0.00 0.00 0.00 30 1001.3
20260509001319 21 261 0.0 19.3 0.00 0.00 0.00 31 1001.3
20260509001307 21 248 0.0 19.3 0.00 0.00 0.00 31 1001.3
20260509001046 21 228 0.0 16.1 0.00 0.00 0.00 32 1001.2
20260509001038 21 248 0.0 9.7 0.00 0.00 0.00 32 1001.2
20260509000735 21 257 0.0 16.1 0.00 0.00 0.00 31 1001.2
20260509000534 21 233 0.0 16.1 0.00 0.00 0.00 31 1001.1
20260509000337 21 213 0.0 16.1 0.00 0.00 0.00 30 1001.2
20260509000303 21 240 0.0 16.1 0.00 0.00 0.00 31 1001.2
20260509000241 21 264 0.0 16.1 0.00 0.00 0.00 30 1001.2
20260508235935 21 245 0.0 16.1 0.00 0.00 0.00 29 1001.1
20260508235802 21 264 0.0 16.1 0.00 0.00 0.00 31 1001.1
20260508235726 21 230 0.0 16.1 0.00 0.00 0.00 31 1001.1
20260508235528 21 243 0.0 16.1 0.00 0.00 0.00 32 1001.1
20260508235325 21 251 0.0 16.1 0.00 0.00 0.00 30 1001.2
20260508235301 21 251 0.0 16.1 0.00 0.00 0.00 31 1001.2
20260508235126 21 224 0.0 16.1 0.00 0.00 0.00 31 1001.2
20260508234926 21 244 0.0 9.7 0.00 0.00 0.00 32 1001.2
20260508234802 22 244 0.0 9.7 0.00 0.00 0.00 32 1001.1
20260508234724 21 217 0.0 9.7 0.00 0.00 0.00 32 1001.1
20260508234629 22 227 0.0 9.7 0.00 0.00 0.00 30 1001.2
20260508234329 22 245 0.0 9.7 0.00 0.00 0.00 32 1001.2
20260508234301 22 241 0.0 9.7 0.00 0.00 0.00 32 1001.2
20260508234126 22 224 0.0 16.1 0.00 0.00 0.00 31 1001.2
20260508233927 21 197 0.0 16.1 0.00 0.00 0.00 31 1001.2
20260508233802 21 173 0.0 16.1 0.00 0.00 0.00 34 1001.3
20260508233723 21 258 0.0 16.1 0.00 0.00 0.00 33 1001.3
20260508233522 21 266 0.0 16.1 0.00 0.00 0.00 32 1001.3
20260508233301 21 254 0.0 16.1 0.00 0.00 0.00 31 1001.2
20260508233122 21 257 0.0 16.1 0.00 0.00 0.00 31 1001.4
20260508233026 21 302 0.0 16.1 0.00 0.00 0.00 30 1001.3
20260508232805 21 247 0.0 16.1 0.00 0.00 0.00 32 1001.3
20260508232726 21 243 0.0 16.1 0.00 0.00 0.00 30 1001.3
20260508232522 21 255 0.0 16.1 0.00 0.00 0.00 30 1001.2
20260508232323 21 231 0.0 16.1 0.00 0.00 0.00 31 1001.3
20260508232301 21 230 0.0 16.1 0.00 0.00 0.00 31 1001.3
20260508232122 21 258 0.0 20.9 0.00 0.00 0.00 30 1001.2
20260508231919 21 240 0.0 20.9 0.00 0.00 0.00 30 1001.2
20260508231801 22 228 0.0 20.9 0.00 0.00 0.00 30 1001.2
20260508231721 22 230 0.0 20.9 0.00 0.00 0.00 30 1001.3
20260508231619 22 259 0.0 20.9 0.00 0.00 0.00 30 1001.3
20260508231318 22 230 0.0 20.9 0.00 0.00 0.00 29 1001.2
20260508231301 22 219 0.0 20.9 0.00 0.00 0.00 29 1001.2
20260508231116 22 233 0.0 20.9 0.00 0.00 0.00 29 1001.3
20260508230918 22 250 0.0 20.9 0.00 0.00 0.00 29 1001.3
20260508230800 22 271 0.0 20.9 0.00 0.00 0.00 30 1001.4
20260508230718 22 268 0.0 20.9 0.00 0.00 0.00 29 1001.3
20260508230515 22 219 0.0 22.5 0.00 0.00 0.00 29 1001.4
20260508230315 22 257 0.0 22.5 0.00 0.00 0.00 29 1001.3
20260508230301 22 252 0.0 22.5 0.00 0.00 0.00 29 1001.3
20260508230115 22 248 0.0 22.5 0.00 0.00 0.00 29 1001.2
20260508230015 22 0 0.0 22.5 0.00 0.00 0.00 29 1001.3
20260508225800 22 237 0.0 22.5 0.00 0.00 0.00 29 1001.3
20260508225714 22 243 0.0 22.5 0.00 0.00 0.00 29 1001.3
20260508225511 22 233 0.0 14.5 0.00 0.00 0.00 31 1001.3
20260508225306 22 238 0.0 11.3 0.00 0.00 0.00 31 1001.3
20260508225103 22 231 0.0 11.3 0.00 0.00 0.00 29 1001.3
20260508224902 22 241 0.0 11.3 0.00 0.00 0.00 30 1001.3
20260508224803 22 212 0.0 11.3 0.00 0.00 0.00 32 1001.3
20260508224708 22 212 0.0 16.1 0.00 0.00 0.00 32 1001.3
20260508224542 22 220 0.0 17.7 0.00 0.00 0.00 32 1001.2
20260508224245 22 237 0.0 17.7 0.00 0.00 0.00 32 1001.3
20260508224230 22 235 0.0 17.7 0.00 0.00 0.00 32 1001.3
20260508224045 22 258 0.0 17.7 0.00 0.00 0.00 31 1001.3
20260508223844 22 245 0.0 17.7 0.00 0.00 0.00 30 1001.2
20260508223730 22 257 0.0 17.7 0.00 0.00 0.00 30 1001.2
20260508223643 22 226 0.0 17.7 0.00 0.00 0.00 30 1001.1
20260508223443 22 241 0.0 17.7 0.00 0.00 0.00 32 1001.3
20260508223244 22 252 0.0 17.7 0.00 0.00 0.00 31 1001.2
20260508223230 22 220 0.0 17.7 0.00 0.00 0.00 31 1001.2
20260508223042 22 266 0.0 17.7 0.00 0.00 0.00 30 1001.2
20260508222938 22 231 0.0 11.3 0.00 0.00 0.00 32 1001.3
20260508222729 22 248 0.0 11.3 0.00 0.00 0.00 33 1001.4
20260508222642 22 240 0.0 16.1 0.00 0.00 0.00 30 1001.2
20260508222435 21 233 0.0 16.1 0.00 0.00 0.00 31 1001.2
20260508222229 21 248 0.0 16.1 0.00 0.00 0.00 31 1001.3
20260508222034 22 179 0.0 16.1 0.00 0.00 0.00 32 1001.3
20260508221834 22 240 0.0 24.1 0.00 0.00 0.00 29 1001.3
20260508221820 22 237 0.0 24.1 0.00 0.00 0.00 32 1001.3
20260508221752 22 254 0.0 9.7 0.00 0.00 0.00 33 1001.5
20260508221748 21 227 0.0 19.3 0.00 0.00 0.00 30 1001.8
20260508221737 22 244 0.0 24.1 0.00 0.00 0.00 31 1001.3
20260508221653 22 217 0.0 24.1 0.00 0.00 0.00 32 1001.3
20260508221613 22 235 0.0 24.1 0.00 0.00 0.00 30 1001.3
20260508221541 22 223 0.0 24.1 0.00 0.00 0.00 29 1001.3
20260508221512 22 248 0.0 14.5 0.00 0.00 0.00 31 1001.3
20260508221452 22 255 0.0 14.5 0.00 0.00 0.00 32 1001.4
20260508221434 21 234 0.0 14.5 0.00 0.00 0.00 32 1001.4
20260508221405 21 254 0.0 11.3 0.00 0.00 0.00 31 1001.5
20260508221332 21 252 0.0 11.3 0.00 0.00 0.00 30 1001.4
20260508221308 21 224 0.0 11.3 0.00 0.00 0.00 32 1001.5
20260508221226 22 237 0.0 9.7 0.00 0.00 0.00 32 1001.5
20260508221210 22 221 0.0 9.7 0.00 0.00 0.00 30 1001.4
20260508221142 22 238 0.0 9.7 0.00 0.00 0.00 34 1001.5
20260508221114 22 238 0.0 8.0 0.00 0.00 0.00 34 1001.6
20260508221042 21 221 0.0 8.0 0.00 0.00 0.00 33 1001.6
20260508221011 21 227 0.0 11.3 0.00 0.00 0.00 30 1001.6
20260508220959 21 262 0.0 11.3 0.00 0.00 0.00 29 1001.6
20260508220941 21 257 0.0 19.3 0.00 0.00 0.00 29 1001.6
20260508220914 21 233 0.0 19.3 0.00 0.00 0.00 31 1001.6
20260508220843 21 234 0.0 19.3 0.00 0.00 0.00 30 1001.7
20260508220750 21 252 0.0 19.3 0.00 0.00 0.00 30 1001.7
20260508220738 21 245 0.0 19.3 0.00 0.00 0.00 30 1001.7
20260508220705 21 255 0.0 17.7 0.00 0.00 0.00 30 1001.8
20260508220634 22 221 0.0 16.1 0.00 0.00 0.00 30 1001.7
20260508213229 21 262 0.0 16.1 0.00 0.00 0.00 32 1001.7
20260508213135 21 228 0.0 16.1 0.00 0.00 0.00 28 1001.8
20260508212934 21 251 0.0 11.3 0.00 0.00 0.00 30 1001.8
20260508212734 21 251 0.0 11.3 0.00 0.00 0.00 30 1001.9
20260508212527 21 251 0.0 11.3 0.00 0.00 0.00 30 1001.9
20260508212324 21 230 0.0 11.3 0.00 0.00 0.00 31 1002.0
20260508212229 21 245 0.0 11.3 0.00 0.00 0.00 30 1001.9